Time,TemperatureF,DewpointF,PressureIn,WindDirection,WindDirectionDegrees,WindSpeedMPH,WindSpeedGustMPH,Humidity,HourlyPrecipIn,Conditions,Clouds,dailyrainin,SoftwareType,DateUTC
2013-03-05 00:00:00,35.5,29.6,29.97,ENE,58,3.0,10.0,79,0.00,,,0.00,Wunderground v.1.15,2013-03-05 05:00:00,
2013-03-05 00:05:00,35.5,29.6,29.97,NE,44,3.0,10.0,79,0.00,,,0.00,Wunderground v.1.15,2013-03-05 05:05:00,
2013-03-05 00:10:00,35.5,29.6,29.96,ENE,63,3.0,3.0,79,0.00,,,0.00,Wunderground v.1.15,2013-03-05 05:10:00,
2013-03-05 00:15:00,35.5,29.6,29.96,East,84,3.0,10.0,79,0.00,,,0.00,Wunderground v.1.15,2013-03-05 05:15:00,
2013-03-05 00:20:00,35.6,29.7,29.96,ESE,105,4.0,4.0,79,0.00,,,0.00,Wunderground v.1.15,2013-03-05 05:20:00,
2013-03-05 00:25:00,35.6,29.7,29.95,SE,145,3.0,10.0,79,0.00,,,0.00,Wunderground v.1.15,2013-03-05 05:25:00,
2013-03-05 00:35:00,35.6,29.7,29.95,East,101,3.0,10.0,79,0.00,,,0.00,Wunderground v.1.15,2013-03-05 05:35:00,
2013-03-05 00:40:00,35.6,29.4,29.95,SE,129,3.0,3.0,78,0.00,,,0.00,Wunderground v.1.15,2013-03-05 05:40:00,
2013-03-05 00:45:00,35.7,29.5,29.94,East,80,3.0,7.0,78,0.00,,,0.00,Wunderground v.1.15,2013-03-05 05:45:00,
2013-03-05 00:50:00,35.7,29.5,29.94,SE,125,3.0,10.0,78,0.00,,,0.00,Wunderground v.1.15,2013-03-05 05:50:00,
2013-03-05 00:55:00,35.7,29.5,29.94,East,94,3.0,10.0,78,0.00,,,0.00,Wunderground v.1.15,2013-03-05 05:55:00,
2013-03-05 01:00:00,35.7,29.5,29.94,ESE,119,4.0,4.0,78,0.00,,,0.00,Wunderground v.1.15,2013-03-05 06:00:00,
2013-03-05 01:05:00,35.7,29.5,29.93,ENE,58,3.0,10.0,78,0.00,,,0.00,Wunderground v.1.15,2013-03-05 06:05:00,
2013-03-05 01:10:00,35.6,29.4,29.94,ESE,119,3.0,3.0,78,0.00,,,0.00,Wunderground v.1.15,2013-03-05 06:10:00,
2013-03-05 01:15:00,35.6,29.7,29.94,ESE,109,4.0,4.0,79,0.00,,,0.00,Wunderground v.1.15,2013-03-05 06:15:00,
2013-03-05 01:20:00,35.6,29.7,29.94,East,86,4.0,4.0,79,0.00,,,0.00,Wunderground v.1.15,2013-03-05 06:20:00,
2013-03-05 01:25:00,35.5,29.9,29.94,ENE,63,3.0,10.0,80,0.00,,,0.00,Wunderground v.1.15,2013-03-05 06:25:00,
2013-03-05 01:30:00,35.4,29.8,29.94,ESE,103,3.0,10.0,80,0.00,,,0.00,Wunderground v.1.15,2013-03-05 06:30:00,
2013-03-05 01:35:00,35.3,30.1,29.94,East,84,3.0,10.0,81,0.00,,,0.00,Wunderground v.1.15,2013-03-05 06:35:00,
2013-03-05 01:45:00,35.2,30.0,29.93,NE,55,3.0,3.0,81,0.00,,,0.00,Wunderground v.1.15,2013-03-05 06:45:00,
2013-03-05 01:50:00,35.2,30.0,29.93,ENE,60,3.0,10.0,81,0.00,,,0.00,Wunderground v.1.15,2013-03-05 06:50:00,
2013-03-05 01:55:00,35.2,30.0,29.93,East,88,3.0,10.0,81,0.00,,,0.00,Wunderground v.1.15,2013-03-05 06:55:00,
2013-03-05 02:05:00,35.3,30.4,29.93,NNE,15,3.0,10.0,82,0.00,,,0.00,Wunderground v.1.15,2013-03-05 07:05:00,
2013-03-05 02:10:00,35.3,30.4,29.93,NE,54,3.0,10.0,82,0.00,,,0.00,Wunderground v.1.15,2013-03-05 07:10:00,
2013-03-05 02:15:00,35.2,30.3,29.93,East,85,3.0,10.0,82,0.00,,,0.00,Wunderground v.1.15,2013-03-05 07:15:00,
2013-03-05 02:20:00,35.2,30.3,29.93,East,96,2.0,10.0,82,0.00,,,0.00,Wunderground v.1.15,2013-03-05 07:20:00,
2013-03-05 02:30:00,35.1,30.5,29.92,East,83,2.0,10.0,83,0.00,,,0.00,Wunderground v.1.15,2013-03-05 07:30:00,
2013-03-05 02:40:00,35.1,30.5,29.92,East,91,1.0,1.0,83,0.00,,,0.00,Wunderground v.1.15,2013-03-05 07:40:00,
2013-03-05 02:45:00,35.0,30.4,29.92,ESE,111,2.0,2.0,83,0.00,,,0.00,Wunderground v.1.15,2013-03-05 07:45:00,
2013-03-05 02:50:00,35.0,30.4,29.91,ENE,65,2.0,10.0,83,0.00,,,0.00,Wunderground v.1.15,2013-03-05 07:50:00,
2013-03-05 02:55:00,35.1,30.5,29.91,East,92,3.0,10.0,83,0.00,,,0.00,Wunderground v.1.15,2013-03-05 07:55:00,
2013-03-05 03:00:00,35.1,30.5,29.91,ESE,104,3.0,10.0,83,0.00,,,0.00,Wunderground v.1.15,2013-03-05 08:00:00,
2013-03-05 03:10:00,35.1,30.8,29.90,SE,130,2.0,2.0,84,0.00,,,0.00,Wunderground v.1.15,2013-03-05 08:10:00,
2013-03-05 03:15:00,35.0,30.7,29.90,NE,51,2.0,5.0,84,0.00,,,0.00,Wunderground v.1.15,2013-03-05 08:15:00,
2013-03-05 03:20:00,35.0,30.7,29.90,East,94,2.0,10.0,84,0.00,,,0.00,Wunderground v.1.15,2013-03-05 08:20:00,
2013-03-05 03:25:00,35.0,30.7,29.90,SE,131,3.0,10.0,84,0.00,,,0.00,Wunderground v.1.15,2013-03-05 08:25:00,
2013-03-05 03:30:00,35.1,30.8,29.89,NE,47,3.0,10.0,84,0.00,,,0.00,Wunderground v.1.15,2013-03-05 08:30:00,
2013-03-05 03:40:00,35.0,30.7,29.89,East,88,3.0,3.0,84,0.00,,,0.00,Wunderground v.1.15,2013-03-05 08:40:00,
2013-03-05 03:45:00,35.0,30.7,29.88,ENE,74,3.0,5.0,84,0.00,,,0.00,Wunderground v.1.15,2013-03-05 08:45:00,
2013-03-05 03:50:00,35.1,30.8,29.88,SE,144,3.0,10.0,84,0.00,,,0.00,Wunderground v.1.15,2013-03-05 08:50:00,
2013-03-05 03:55:00,35.1,30.8,29.88,ENE,70,3.0,10.0,84,0.00,,,0.00,Wunderground v.1.15,2013-03-05 08:55:00,
2013-03-05 04:00:00,35.1,30.8,29.88,ESE,108,2.0,10.0,84,0.00,,,0.00,Wunderground v.1.15,2013-03-05 09:00:00,
2013-03-05 04:05:00,35.2,30.9,29.87,SSW,198,2.0,10.0,84,0.00,,,0.00,Wunderground v.1.15,2013-03-05 09:05:00,
2013-03-05 04:10:00,35.2,30.9,29.87,East,84,2.0,10.0,84,0.00,,,0.00,Wunderground v.1.15,2013-03-05 09:10:00,
2013-03-05 04:15:00,35.3,30.7,29.87,ESE,109,3.0,10.0,83,0.00,,,0.00,Wunderground v.1.15,2013-03-05 09:15:00,
2013-03-05 04:20:00,35.3,30.7,29.87,East,82,3.0,3.0,83,0.00,,,0.00,Wunderground v.1.15,2013-03-05 09:20:00,
2013-03-05 04:30:00,35.3,30.7,29.86,ESE,106,3.0,10.0,83,0.00,,,0.00,Wunderground v.1.15,2013-03-05 09:30:00,
2013-03-05 04:35:00,35.2,30.9,29.87,ESE,118,3.0,10.0,84,0.00,,,0.00,Wunderground v.1.15,2013-03-05 09:35:00,
2013-03-05 04:40:00,35.2,30.9,29.86,ENE,75,2.0,10.0,84,0.00,,,0.00,Wunderground v.1.15,2013-03-05 09:40:00,
2013-03-05 04:45:00,35.2,30.9,29.86,SE,130,2.0,10.0,84,0.00,,,0.00,Wunderground v.1.15,2013-03-05 09:45:00,
2013-03-05 04:50:00,35.2,30.9,29.86,East,92,2.0,10.0,84,0.00,,,0.00,Wunderground v.1.15,2013-03-05 09:50:00,
2013-03-05 04:55:00,35.1,30.8,29.86,ESE,111,2.0,10.0,84,0.00,,,0.00,Wunderground v.1.15,2013-03-05 09:55:00,
2013-03-05 05:00:00,35.1,30.8,29.86,ESE,108,2.0,10.0,84,0.00,,,0.00,Wunderground v.1.15,2013-03-05 10:00:00,
2013-03-05 05:05:00,35.1,30.8,29.86,ESE,109,1.0,10.0,84,0.00,,,0.00,Wunderground v.1.15,2013-03-05 10:05:00,
2013-03-05 05:10:00,35.1,31.0,29.86,ESE,109,1.0,10.0,85,0.00,,,0.00,Wunderground v.1.15,2013-03-05 10:10:00,
2013-03-05 05:15:00,35.0,30.9,29.86,East,96,1.0,10.0,85,0.00,,,0.00,Wunderground v.1.15,2013-03-05 10:15:00,
2013-03-05 05:25:00,35.1,30.8,29.87,ESE,119,2.0,10.0,84,0.00,,,0.00,Wunderground v.1.15,2013-03-05 10:25:00,
2013-03-05 05:30:00,35.1,30.8,29.87,ESE,119,2.0,2.0,84,0.00,,,0.00,Wunderground v.1.15,2013-03-05 10:30:00,
2013-03-05 05:35:00,35.1,30.8,29.87,ENE,70,1.0,10.0,84,0.00,,,0.00,Wunderground v.1.15,2013-03-05 10:35:00,
2013-03-05 05:40:00,35.2,30.9,29.86,East,86,2.0,10.0,84,0.00,,,0.00,Wunderground v.1.15,2013-03-05 10:40:00,
2013-03-05 05:45:00,35.2,30.9,29.86,NE,44,2.0,10.0,84,0.00,,,0.00,Wunderground v.1.15,2013-03-05 10:45:00,
2013-03-05 05:50:00,35.2,30.9,29.86,NE,49,2.0,2.0,84,0.00,,,0.00,Wunderground v.1.15,2013-03-05 10:50:00,
2013-03-05 05:55:00,35.2,30.9,29.86,East,88,2.0,3.0,84,0.00,,,0.00,Wunderground v.1.15,2013-03-05 10:55:00,
2013-03-05 06:00:00,35.3,30.7,29.86,East,92,2.0,2.0,83,0.00,,,0.00,Wunderground v.1.15,2013-03-05 11:00:00,
2013-03-05 06:10:00,35.4,30.8,29.86,East,100,2.0,3.0,83,0.00,,,0.00,Wunderground v.1.15,2013-03-05 11:10:00,
2013-03-05 06:20:00,35.5,30.8,29.86,East,94,3.0,3.0,83,0.00,,,0.00,Wunderground v.1.15,2013-03-05 11:20:00,
2013-03-05 06:25:00,35.5,30.8,29.85,NE,40,3.0,3.0,83,0.00,,,0.00,Wunderground v.1.15,2013-03-05 11:25:00,
2013-03-05 06:30:00,35.5,30.8,29.85,East,101,2.0,2.0,83,0.00,,,0.00,Wunderground v.1.15,2013-03-05 11:30:00,
2013-03-05 06:35:00,35.4,30.8,29.86,ESE,114,2.0,7.0,83,0.00,,,0.00,Wunderground v.1.15,2013-03-05 11:35:00,
2013-03-05 06:40:00,35.5,30.8,29.85,East,81,2.0,2.0,83,0.00,,,0.00,Wunderground v.1.15,2013-03-05 11:40:00,
2013-03-05 06:45:00,35.4,30.8,29.85,ESE,108,3.0,3.0,83,0.00,,,0.00,Wunderground v.1.15,2013-03-05 11:45:00,
2013-03-05 06:50:00,35.4,31.0,29.85,East,100,3.0,3.0,84,0.00,,,0.00,Wunderground v.1.15,2013-03-05 11:50:00,
2013-03-05 06:55:00,35.3,30.9,29.85,SE,124,2.0,3.0,84,0.00,,,0.00,Wunderground v.1.15,2013-03-05 11:55:00,
2013-03-05 07:00:00,35.2,30.9,29.85,ESE,105,3.0,3.0,84,0.00,,,0.00,Wunderground v.1.15,2013-03-05 12:00:00,
2013-03-05 07:10:00,35.2,31.1,29.85,East,100,2.0,7.0,85,0.00,,,0.00,Wunderground v.1.15,2013-03-05 12:10:00,
2013-03-05 07:15:00,35.2,30.9,29.84,ENE,75,3.0,7.0,84,0.00,,,0.00,Wunderground v.1.15,2013-03-05 12:15:00,
2013-03-05 07:25:00,35.2,30.9,29.85,ESE,109,2.0,7.0,84,0.00,,,0.00,Wunderground v.1.15,2013-03-05 12:25:00,
2013-03-05 07:30:00,35.2,30.9,29.84,ENE,74,3.0,3.0,84,0.00,,,0.00,Wunderground v.1.15,2013-03-05 12:30:00,
2013-03-05 07:35:00,35.2,30.9,29.84,ENE,64,3.0,7.0,84,0.00,,,0.00,Wunderground v.1.15,2013-03-05 12:35:00,
2013-03-05 07:45:00,35.2,31.1,29.83,SE,146,2.0,7.0,85,0.00,,,0.00,Wunderground v.1.15,2013-03-05 12:45:00,
2013-03-05 07:50:00,35.1,31.0,29.83,NE,45,2.0,2.0,85,0.00,,,0.00,Wunderground v.1.15,2013-03-05 12:50:00,
2013-03-05 07:55:00,35.2,31.1,29.83,ESE,113,3.0,3.0,85,0.00,,,0.00,Wunderground v.1.15,2013-03-05 12:55:00,
2013-03-05 08:00:00,35.2,31.1,29.83,East,92,2.0,2.0,85,0.00,,,0.00,Wunderground v.1.15,2013-03-05 13:00:00,
2013-03-05 08:05:00,35.2,31.1,29.84,East,98,2.0,5.0,85,0.00,,,0.00,Wunderground v.1.15,2013-03-05 13:05:00,
2013-03-05 08:10:00,35.2,31.1,29.84,ESE,117,3.0,3.0,85,0.00,,,0.00,Wunderground v.1.15,2013-03-05 13:10:00,
2013-03-05 08:20:00,35.2,31.1,29.83,ENE,73,3.0,7.0,85,0.00,,,0.00,Wunderground v.1.15,2013-03-05 13:20:00,
2013-03-05 08:25:00,35.2,31.1,29.83,ENE,66,3.0,7.0,85,0.00,,,0.00,Wunderground v.1.15,2013-03-05 13:25:00,
2013-03-05 08:30:00,35.1,31.3,29.84,ESE,117,3.0,3.0,86,0.00,,,0.00,Wunderground v.1.15,2013-03-05 13:30:00,
2013-03-05 08:35:00,35.1,31.3,29.84,East,86,3.0,7.0,86,0.00,,,0.00,Wunderground v.1.15,2013-03-05 13:35:00,
2013-03-05 08:40:00,35.1,31.3,29.84,ESE,113,2.0,7.0,86,0.00,,,0.00,Wunderground v.1.15,2013-03-05 13:40:00,
2013-03-05 08:50:00,35.1,31.6,29.83,East,100,2.0,2.0,87,0.00,,,0.00,Wunderground v.1.15,2013-03-05 13:50:00,
2013-03-05 08:55:00,35.1,31.3,29.83,SE,130,2.0,3.0,86,0.00,,,0.00,Wunderground v.1.15,2013-03-05 13:55:00,
2013-03-05 09:00:00,35.2,31.4,29.84,SE,127,2.0,7.0,86,0.00,,,0.00,Wunderground v.1.15,2013-03-05 14:00:00,
2013-03-05 09:05:00,35.2,31.4,29.84,SE,132,2.0,7.0,86,0.00,,,0.00,Wunderground v.1.15,2013-03-05 14:05:00,
2013-03-05 09:10:00,35.2,31.4,29.83,ESE,110,2.0,2.0,86,0.00,,,0.00,Wunderground v.1.15,2013-03-05 14:10:00,
2013-03-05 09:20:00,35.3,31.8,29.82,ESE,109,4.0,4.0,87,0.00,,,0.00,Wunderground v.1.15,2013-03-05 14:20:00,
2013-03-05 09:30:00,35.5,32.0,29.82,ESE,119,2.0,2.0,87,0.00,,,0.00,Wunderground v.1.15,2013-03-05 14:30:00,
2013-03-05 09:35:00,35.5,32.3,29.82,ESE,121,2.0,7.0,88,0.00,,,0.00,Wunderground v.1.15,2013-03-05 14:35:00,
2013-03-05 09:40:00,35.6,32.1,29.82,East,79,3.0,7.0,87,0.00,,,0.00,Wunderground v.1.15,2013-03-05 14:40:00,
2013-03-05 09:45:00,35.5,32.0,29.82,SE,136,3.0,7.0,87,0.00,,,0.00,Wunderground v.1.15,2013-03-05 14:45:00,
2013-03-05 09:50:00,35.6,32.1,29.82,East,92,3.0,3.0,87,0.00,,,0.00,Wunderground v.1.15,2013-03-05 14:50:00,
2013-03-05 10:00:00,35.5,32.3,29.81,SE,140,2.0,7.0,88,0.00,,,0.00,Wunderground v.1.15,2013-03-05 15:00:00,
2013-03-05 10:05:00,35.5,32.3,29.80,ENE,76,3.0,7.0,88,0.00,,,0.00,Wunderground v.1.15,2013-03-05 15:05:00,
2013-03-05 10:10:00,35.6,32.4,29.80,NE,49,3.0,7.0,88,0.00,,,0.00,Wunderground v.1.15,2013-03-05 15:10:00,
2013-03-05 10:15:00,35.7,32.5,29.80,East,84,4.0,7.0,88,0.00,,,0.00,Wunderground v.1.15,2013-03-05 15:15:00,
2013-03-05 10:25:00,35.7,32.5,29.79,East,88,4.0,7.0,88,0.00,,,0.00,Wunderground v.1.15,2013-03-05 15:25:00,
2013-03-05 10:35:00,35.8,32.9,29.79,NE,38,3.0,7.0,89,0.00,,,0.00,Wunderground v.1.15,2013-03-05 15:35:00,
2013-03-05 10:40:00,35.8,32.9,29.78,SSE,150,3.0,3.0,89,0.00,,,0.00,Wunderground v.1.15,2013-03-05 15:40:00,
2013-03-05 10:45:00,35.9,33.3,29.78,ESE,111,2.0,7.0,90,0.00,,,0.00,Wunderground v.1.15,2013-03-05 15:45:00,
2013-03-05 10:50:00,35.9,33.3,29.78,ENE,61,2.0,7.0,90,0.00,,,0.01,Wunderground v.1.15,2013-03-05 15:50:00,
2013-03-05 10:55:00,35.9,33.3,29.78,NE,52,2.0,7.0,90,0.00,,,0.01,Wunderground v.1.15,2013-03-05 15:55:00,
2013-03-05 11:00:00,35.9,33.5,29.78,East,88,3.0,3.0,91,0.00,,,0.01,Wunderground v.1.15,2013-03-05 16:00:00,
2013-03-05 11:05:00,35.9,33.5,29.78,ENE,76,3.0,7.0,91,0.00,,,0.01,Wunderground v.1.15,2013-03-05 16:05:00,
2013-03-05 11:10:00,35.9,33.5,29.78,ESE,111,2.0,7.0,91,0.00,,,0.01,Wunderground v.1.15,2013-03-05 16:10:00,
2013-03-05 11:15:00,35.9,33.5,29.78,East,87,2.0,7.0,91,0.00,,,0.01,Wunderground v.1.15,2013-03-05 16:15:00,
2013-03-05 11:25:00,36.0,33.9,29.77,ENE,78,2.0,7.0,92,0.00,,,0.01,Wunderground v.1.15,2013-03-05 16:25:00,
2013-03-05 11:30:00,36.0,34.2,29.77,East,98,1.0,7.0,93,0.00,,,0.01,Wunderground v.1.15,2013-03-05 16:30:00,
2013-03-05 11:40:00,35.7,33.6,29.77,ESE,103,2.0,2.0,92,0.00,,,0.01,Wunderground v.1.15,2013-03-05 16:40:00,
2013-03-05 11:45:00,35.7,33.6,29.78,East,91,1.0,5.0,92,0.00,,,0.01,Wunderground v.1.15,2013-03-05 16:45:00,
2013-03-05 11:50:00,35.7,33.9,29.78,ESE,111,1.0,7.0,93,0.00,,,0.01,Wunderground v.1.15,2013-03-05 16:50:00,
2013-03-05 11:55:00,35.8,34.0,29.77,East,79,2.0,7.0,93,0.00,,,0.01,Wunderground v.1.15,2013-03-05 16:55:00,
2013-03-05 12:00:00,35.8,34.0,29.77,East,89,1.0,7.0,93,0.00,,,0.01,Wunderground v.1.15,2013-03-05 17:00:00,
2013-03-05 12:05:00,35.7,33.9,29.77,East,94,1.0,7.0,93,0.00,,,0.01,Wunderground v.1.15,2013-03-05 17:05:00,
2013-03-05 12:10:00,35.6,33.5,29.77,East,94,1.0,7.0,92,0.00,,,0.01,Wunderground v.1.15,2013-03-05 17:10:00,
2013-03-05 12:20:00,35.5,33.7,29.76,ESE,121,1.0,1.0,93,0.00,,,0.01,Wunderground v.1.15,2013-03-05 17:20:00,
2013-03-05 12:25:00,35.5,33.7,29.76,East,90,1.0,7.0,93,0.00,,,0.01,Wunderground v.1.15,2013-03-05 17:25:00,
2013-03-05 12:30:00,35.3,33.5,29.76,ENE,78,1.0,7.0,93,0.00,,,0.01,Wunderground v.1.15,2013-03-05 17:30:00,
2013-03-05 12:35:00,35.2,33.6,29.76,NE,53,1.0,7.0,94,0.00,,,0.02,Wunderground v.1.15,2013-03-05 17:35:00,
2013-03-05 12:40:00,35.2,33.6,29.76,ENE,59,1.0,7.0,94,0.00,,,0.02,Wunderground v.1.15,2013-03-05 17:40:00,
2013-03-05 12:45:00,35.1,33.5,29.76,ENE,60,1.0,7.0,94,0.04,,,0.03,Wunderground v.1.15,2013-03-05 17:45:00,
2013-03-05 12:50:00,35.1,33.8,29.75,ENE,60,0.0,7.0,95,0.04,,,0.03,Wunderground v.1.15,2013-03-05 17:50:00,
2013-03-05 12:55:00,35.1,33.8,29.75,NNE,18,0.0,7.0,95,0.04,,,0.03,Wunderground v.1.15,2013-03-05 17:55:00,
2013-03-05 13:05:00,35.0,33.7,29.74,East,82,1.0,7.0,95,0.00,,,0.04,Wunderground v.1.15,2013-03-05 18:05:00,
2013-03-05 13:10:00,35.2,34.2,29.74,ENE,65,1.0,1.0,96,0.00,,,0.04,Wunderground v.1.15,2013-03-05 18:10:00,
2013-03-05 13:15:00,35.1,34.1,29.74,NE,40,1.0,2.0,96,0.00,,,0.04,Wunderground v.1.15,2013-03-05 18:15:00,
2013-03-05 13:20:00,35.2,34.2,29.74,ENE,58,1.0,1.0,96,0.00,,,0.04,Wunderground v.1.15,2013-03-05 18:20:00,
2013-03-05 13:25:00,35.2,34.2,29.73,East,90,1.0,7.0,96,0.00,,,0.04,Wunderground v.1.15,2013-03-05 18:25:00,
2013-03-05 13:30:00,35.0,34.0,29.73,North,5,1.0,1.0,96,0.00,,,0.04,Wunderground v.1.15,2013-03-05 18:30:00,
2013-03-05 13:35:00,34.8,33.8,29.73,ENE,67,1.0,2.0,96,0.00,,,0.04,Wunderground v.1.15,2013-03-05 18:35:00,
2013-03-05 13:40:00,34.6,33.6,29.73,NE,34,1.0,1.0,96,0.00,,,0.04,Wunderground v.1.15,2013-03-05 18:40:00,
2013-03-05 13:45:00,34.4,33.4,29.72,NE,34,1.0,7.0,96,0.00,,,0.04,Wunderground v.1.15,2013-03-05 18:45:00,
2013-03-05 13:50:00,34.3,33.3,29.72,East,80,1.0,1.0,96,0.00,,,0.04,Wunderground v.1.15,2013-03-05 18:50:00,
2013-03-05 13:55:00,34.1,33.1,29.72,East,80,0.0,7.0,96,0.00,,,0.04,Wunderground v.1.15,2013-03-05 18:55:00,
2013-03-05 14:05:00,33.8,32.8,29.72,ESE,123,0.0,7.0,96,0.00,,,0.05,Wunderground v.1.15,2013-03-05 19:05:00,
2013-03-05 14:10:00,33.7,32.7,29.72,ESE,123,0.0,7.0,96,0.00,,,0.05,Wunderground v.1.15,2013-03-05 19:10:00,
2013-03-05 14:15:00,33.6,32.6,29.71,ESE,123,0.0,7.0,96,0.00,,,0.05,Wunderground v.1.15,2013-03-05 19:15:00,
2013-03-05 14:20:00,33.7,32.9,29.71,ESE,123,0.0,7.0,97,0.00,,,0.05,Wunderground v.1.15,2013-03-05 19:20:00,
2013-03-05 14:30:00,33.7,32.9,29.72,ESE,123,0.0,7.0,97,0.00,,,0.05,Wunderground v.1.15,2013-03-05 19:30:00,
2013-03-05 14:35:00,33.5,32.7,29.71,ESE,123,0.0,7.0,97,0.00,,,0.05,Wunderground v.1.15,2013-03-05 19:35:00,
2013-03-05 14:40:00,33.4,32.4,29.71,ESE,123,0.0,7.0,96,0.00,,,0.06,Wunderground v.1.15,2013-03-05 19:40:00,
2013-03-05 14:45:00,33.2,32.2,29.70,ESE,123,0.0,7.0,96,0.00,,,0.06,Wunderground v.1.15,2013-03-05 19:45:00,
2013-03-05 14:50:00,33.1,32.3,29.70,ESE,123,1.0,7.0,97,0.00,,,0.06,Wunderground v.1.15,2013-03-05 19:50:00,
2013-03-05 14:55:00,33.0,32.2,29.71,ESE,123,1.0,7.0,97,0.00,,,0.07,Wunderground v.1.15,2013-03-05 19:55:00,
2013-03-05 15:05:00,32.9,32.1,29.71,NW,325,1.0,7.0,97,0.00,,,0.07,Wunderground v.1.15,2013-03-05 20:05:00,
2013-03-05 15:10:00,32.8,32.0,29.71,NW,325,1.0,7.0,97,0.00,,,0.07,Wunderground v.1.15,2013-03-05 20:10:00,
2013-03-05 15:15:00,32.8,32.0,29.71,NW,325,1.0,7.0,97,0.00,,,0.07,Wunderground v.1.15,2013-03-05 20:15:00,
2013-03-05 15:20:00,32.8,32.0,29.70,NNW,330,2.0,2.0,97,0.00,,,0.07,Wunderground v.1.15,2013-03-05 20:20:00,
2013-03-05 15:25:00,32.7,31.9,29.71,NW,322,2.0,7.0,97,0.00,,,0.07,Wunderground v.1.15,2013-03-05 20:25:00,
2013-03-05 15:30:00,32.7,31.9,29.71,NW,322,2.0,7.0,97,0.00,,,0.07,Wunderground v.1.15,2013-03-05 20:30:00,
2013-03-05 15:35:00,32.7,31.9,29.71,NW,321,2.0,7.0,97,0.00,,,0.07,Wunderground v.1.15,2013-03-05 20:35:00,
2013-03-05 15:40:00,32.7,31.9,29.71,NW,321,1.0,1.0,97,0.00,,,0.07,Wunderground v.1.15,2013-03-05 20:40:00,
2013-03-05 15:45:00,32.6,31.8,29.71,NW,319,1.0,2.0,97,0.00,,,0.07,Wunderground v.1.15,2013-03-05 20:45:00,
2013-03-05 15:50:00,32.6,31.8,29.71,NW,319,2.0,7.0,97,0.00,,,0.07,Wunderground v.1.15,2013-03-05 20:50:00,
2013-03-05 15:55:00,32.6,32.1,29.71,NW,319,2.0,7.0,98,0.00,,,0.07,Wunderground v.1.15,2013-03-05 20:55:00,
2013-03-05 16:05:00,32.6,32.1,29.71,NW,323,2.0,7.0,98,0.00,,,0.08,Wunderground v.1.15,2013-03-05 21:05:00,
2013-03-05 16:15:00,32.6,32.1,29.71,NW,319,2.0,7.0,98,0.00,,,0.08,Wunderground v.1.15,2013-03-05 21:15:00,
2013-03-05 16:20:00,32.5,32.0,29.71,NW,325,2.0,7.0,98,0.00,,,0.08,Wunderground v.1.15,2013-03-05 21:20:00,
2013-03-05 16:25:00,32.5,32.0,29.71,NW,321,3.0,7.0,98,0.00,,,0.08,Wunderground v.1.15,2013-03-05 21:25:00,
2013-03-05 16:30:00,32.5,32.0,29.71,NW,315,3.0,7.0,98,0.00,,,0.08,Wunderground v.1.15,2013-03-05 21:30:00,
2013-03-05 16:35:00,32.5,32.0,29.71,NW,325,3.0,7.0,98,0.00,,,0.09,Wunderground v.1.15,2013-03-05 21:35:00,
2013-03-05 16:40:00,32.5,32.0,29.71,North,350,3.0,7.0,98,0.00,,,0.09,Wunderground v.1.15,2013-03-05 21:40:00,
2013-03-05 16:45:00,32.5,32.0,29.71,NW,320,3.0,7.0,98,0.00,,,0.09,Wunderground v.1.15,2013-03-05 21:45:00,
2013-03-05 16:50:00,32.5,32.0,29.71,NW,325,2.0,7.0,98,0.00,,,0.09,Wunderground v.1.15,2013-03-05 21:50:00,
2013-03-05 17:00:00,32.5,32.0,29.72,NW,309,3.0,7.0,98,0.00,,,0.09,Wunderground v.1.15,2013-03-05 22:00:00,
2013-03-05 17:05:00,32.5,32.0,29.72,NW,325,3.0,7.0,98,0.00,,,0.09,Wunderground v.1.15,2013-03-05 22:05:00,
2013-03-05 17:10:00,32.5,32.0,29.72,NW,315,3.0,7.0,98,0.00,,,0.09,Wunderground v.1.15,2013-03-05 22:10:00,
2013-03-05 17:15:00,32.4,31.9,29.72,NW,308,3.0,7.0,98,0.00,,,0.09,Wunderground v.1.15,2013-03-05 22:15:00,
2013-03-05 17:20:00,32.4,31.9,29.72,NW,322,3.0,7.0,98,0.00,,,0.09,Wunderground v.1.15,2013-03-05 22:20:00,
2013-03-05 17:30:00,32.3,31.8,29.72,NW,320,3.0,3.0,98,0.00,,,0.10,Wunderground v.1.15,2013-03-05 22:30:00,
2013-03-05 17:35:00,32.4,31.9,29.72,WNW,287,2.0,7.0,98,0.00,,,0.10,Wunderground v.1.15,2013-03-05 22:35:00,
2013-03-05 17:40:00,32.4,31.9,29.72,NNW,328,2.0,7.0,98,0.00,,,0.10,Wunderground v.1.15,2013-03-05 22:40:00,
2013-03-05 17:45:00,32.4,31.9,29.73,WNW,296,2.0,7.0,98,0.00,,,0.10,Wunderground v.1.15,2013-03-05 22:45:00,
2013-03-05 17:50:00,32.3,31.8,29.73,NW,313,2.0,7.0,98,0.00,,,0.10,Wunderground v.1.15,2013-03-05 22:50:00,
2013-03-05 18:00:00,32.4,31.9,29.73,NW,304,2.0,2.0,98,0.00,,,0.10,Wunderground v.1.15,2013-03-05 23:00:00,
2013-03-05 18:05:00,32.3,31.8,29.73,NW,315,2.0,4.0,98,0.00,,,0.10,Wunderground v.1.15,2013-03-05 23:05:00,
2013-03-05 18:10:00,32.2,31.7,29.73,NW,307,3.0,7.0,98,0.00,,,0.10,Wunderground v.1.15,2013-03-05 23:10:00,
2013-03-05 18:15:00,32.1,31.6,29.74,NW,311,3.0,7.0,98,0.00,,,0.10,Wunderground v.1.15,2013-03-05 23:15:00,
2013-03-05 18:20:00,32.1,31.6,29.74,WNW,295,3.0,7.0,98,0.00,,,0.10,Wunderground v.1.15,2013-03-05 23:20:00,
2013-03-05 18:25:00,32.0,31.5,29.74,NW,306,3.0,7.0,98,0.00,,,0.10,Wunderground v.1.15,2013-03-05 23:25:00,
2013-03-05 18:30:00,31.9,31.4,29.74,WNW,302,4.0,4.0,98,0.00,,,0.10,Wunderground v.1.15,2013-03-05 23:30:00,
2013-03-05 18:40:00,31.9,31.4,29.74,NW,324,2.0,2.0,98,0.00,,,0.10,Wunderground v.1.15,2013-03-05 23:40:00,
2013-03-05 18:45:00,31.9,31.4,29.74,NW,316,2.0,7.0,98,0.00,,,0.10,Wunderground v.1.15,2013-03-05 23:45:00,
2013-03-05 18:50:00,31.9,31.4,29.74,NW,307,2.0,7.0,98,0.00,,,0.10,Wunderground v.1.15,2013-03-05 23:50:00,
2013-03-05 18:55:00,31.8,31.3,29.75,North,355,2.0,7.0,98,0.00,,,0.10,Wunderground v.1.15,2013-03-05 23:55:00,
2013-03-05 19:00:00,31.7,31.2,29.75,NW,321,2.0,7.0,98,0.00,,,0.10,Wunderground v.1.15,2013-03-06 00:00:00,
2013-03-05 19:05:00,31.6,31.1,29.75,NW,308,2.0,7.0,98,0.00,,,0.10,Wunderground v.1.15,2013-03-06 00:05:00,
2013-03-05 19:10:00,31.5,31.0,29.75,NW,308,2.0,7.0,98,0.00,,,0.11,Wunderground v.1.15,2013-03-06 00:10:00,
2013-03-05 19:15:00,31.5,31.0,29.75,WNW,302,2.0,7.0,98,0.00,,,0.11,Wunderground v.1.15,2013-03-06 00:15:00,
2013-03-05 19:20:00,31.4,30.9,29.76,NW,306,2.0,7.0,98,0.00,,,0.11,Wunderground v.1.15,2013-03-06 00:20:00,
2013-03-05 19:25:00,31.4,30.9,29.76,NW,306,2.0,7.0,98,0.00,,,0.11,Wunderground v.1.15,2013-03-06 00:25:00,
2013-03-05 19:30:00,31.4,30.9,29.76,WNW,302,2.0,2.0,98,0.00,,,0.11,Wunderground v.1.15,2013-03-06 00:30:00,
2013-03-05 19:35:00,31.4,30.9,29.76,NW,309,2.0,3.0,98,0.00,,,0.11,Wunderground v.1.15,2013-03-06 00:35:00,
2013-03-05 19:40:00,31.4,30.9,29.77,NW,311,2.0,3.0,98,0.00,,,0.11,Wunderground v.1.15,2013-03-06 00:40:00,
2013-03-05 19:50:00,31.4,30.9,29.77,NW,317,2.0,3.0,98,0.00,,,0.11,Wunderground v.1.15,2013-03-06 00:50:00,
2013-03-05 19:55:00,31.3,30.8,29.77,NW,314,2.0,3.0,98,0.00,,,0.11,Wunderground v.1.15,2013-03-06 00:55:00,
2013-03-05 20:00:00,31.3,30.8,29.77,NNW,328,2.0,2.0,98,0.00,,,0.11,Wunderground v.1.15,2013-03-06 01:00:00,
2013-03-05 20:05:00,31.3,30.8,29.77,NW,315,2.0,7.0,98,0.00,,,0.11,Wunderground v.1.15,2013-03-06 01:05:00,
2013-03-05 20:10:00,31.3,30.8,29.77,NW,314,2.0,7.0,98,0.00,,,0.11,Wunderground v.1.15,2013-03-06 01:10:00,
2013-03-05 20:15:00,31.2,30.7,29.77,NW,313,2.0,7.0,98,0.00,,,0.11,Wunderground v.1.15,2013-03-06 01:15:00,
2013-03-05 20:20:00,31.2,30.7,29.77,NW,319,2.0,7.0,98,0.00,,,0.11,Wunderground v.1.15,2013-03-06 01:20:00,
2013-03-05 20:25:00,31.1,30.6,29.77,NNW,344,3.0,7.0,98,0.00,,,0.11,Wunderground v.1.15,2013-03-06 01:25:00,
2013-03-05 20:30:00,30.9,30.4,29.78,NW,312,3.0,7.0,98,0.00,,,0.11,Wunderground v.1.15,2013-03-06 01:30:00,
2013-03-05 20:40:00,30.5,30.0,29.78,NNW,327,3.0,3.0,98,0.00,,,0.11,Wunderground v.1.15,2013-03-06 01:40:00,
2013-03-05 20:50:00,30.1,29.6,29.78,North,355,3.0,7.0,98,0.00,,,0.11,Wunderground v.1.15,2013-03-06 01:50:00,
2013-03-05 20:55:00,29.9,29.4,29.78,NW,325,3.0,7.0,98,0.00,,,0.11,Wunderground v.1.15,2013-03-06 01:55:00,
2013-03-05 21:00:00,29.8,29.3,29.78,NW,310,4.0,4.0,98,0.00,,,0.11,Wunderground v.1.15,2013-03-06 02:00:00,
2013-03-05 21:05:00,29.7,29.2,29.78,NNW,340,3.0,5.0,98,0.00,,,0.11,Wunderground v.1.15,2013-03-06 02:05:00,
2013-03-05 21:10:00,29.6,29.1,29.78,NNW,336,4.0,7.0,98,0.00,,,0.11,Wunderground v.1.15,2013-03-06 02:10:00,
2013-03-05 21:20:00,29.3,28.8,29.79,NNW,342,3.0,7.0,98,0.00,,,0.11,Wunderground v.1.15,2013-03-06 02:20:00,
2013-03-05 21:25:00,29.2,28.7,29.79,North,350,3.0,7.0,98,0.00,,,0.11,Wunderground v.1.15,2013-03-06 02:25:00,
2013-03-05 21:30:00,29.1,28.6,29.79,NW,306,3.0,7.0,98,0.00,,,0.11,Wunderground v.1.15,2013-03-06 02:30:00,
2013-03-05 21:35:00,29.0,28.5,29.80,WNW,286,3.0,7.0,98,0.00,,,0.11,Wunderground v.1.15,2013-03-06 02:35:00,
2013-03-05 21:40:00,29.0,28.5,29.80,NW,319,3.0,3.0,98,0.00,,,0.11,Wunderground v.1.15,2013-03-06 02:40:00,
2013-03-05 21:45:00,28.9,28.4,29.80,NW,323,3.0,4.0,98,0.00,,,0.11,Wunderground v.1.15,2013-03-06 02:45:00,
2013-03-05 21:50:00,28.9,28.4,29.80,NW,309,3.0,3.0,98,0.00,,,0.11,Wunderground v.1.15,2013-03-06 02:50:00,
2013-03-05 21:55:00,28.8,28.3,29.80,NNW,341,3.0,7.0,98,0.00,,,0.11,Wunderground v.1.15,2013-03-06 02:55:00,
2013-03-05 22:05:00,28.8,28.3,29.80,NNW,342,3.0,7.0,98,0.00,,,0.11,Wunderground v.1.15,2013-03-06 03:05:00,
2013-03-05 22:10:00,28.7,28.2,29.81,NNW,340,4.0,7.0,98,0.00,,,0.11,Wunderground v.1.15,2013-03-06 03:10:00,
2013-03-05 22:15:00,28.7,28.2,29.81,NNW,340,4.0,7.0,98,0.00,,,0.11,Wunderground v.1.15,2013-03-06 03:15:00,
2013-03-05 22:20:00,28.6,28.1,29.81,NNW,344,4.0,7.0,98,0.00,,,0.11,Wunderground v.1.15,2013-03-06 03:20:00,
2013-03-05 22:30:00,28.4,27.9,29.81,NW,308,4.0,4.0,98,0.00,,,0.11,Wunderground v.1.15,2013-03-06 03:30:00,
2013-03-05 22:35:00,28.3,27.8,29.82,NNW,346,4.0,7.0,98,0.00,,,0.11,Wunderground v.1.15,2013-03-06 03:35:00,
2013-03-05 22:40:00,28.2,27.7,29.82,NW,308,3.0,7.0,98,0.00,,,0.11,Wunderground v.1.15,2013-03-06 03:40:00,
2013-03-05 22:45:00,28.2,27.7,29.82,NW,319,4.0,7.0,98,0.00,,,0.11,Wunderground v.1.15,2013-03-06 03:45:00,
2013-03-05 22:50:00,28.1,27.6,29.83,NW,317,4.0,7.0,98,0.00,,,0.11,Wunderground v.1.15,2013-03-06 03:50:00,
2013-03-05 22:55:00,28.1,27.6,29.83,NNW,344,4.0,7.0,98,0.00,,,0.11,Wunderground v.1.15,2013-03-06 03:55:00,
2013-03-05 23:00:00,28.1,27.6,29.83,NW,319,4.0,7.0,98,0.00,,,0.11,Wunderground v.1.15,2013-03-06 04:00:00,
2013-03-05 23:05:00,28.2,27.7,29.83,WNW,298,5.0,7.0,98,0.00,,,0.11,Wunderground v.1.15,2013-03-06 04:05:00,
2013-03-05 23:10:00,28.3,27.8,29.83,NW,320,5.0,5.0,98,0.00,,,0.11,Wunderground v.1.15,2013-03-06 04:10:00,
2013-03-05 23:15:00,28.4,27.9,29.84,NNW,331,4.0,6.0,98,0.00,,,0.11,Wunderground v.1.15,2013-03-06 04:15:00,
2013-03-05 23:20:00,28.5,28.0,29.84,NNW,335,4.0,4.0,98,0.00,,,0.11,Wunderground v.1.15,2013-03-06 04:20:00,
2013-03-05 23:30:00,28.8,28.3,29.84,NW,317,5.0,7.0,98,0.00,,,0.11,Wunderground v.1.15,2013-03-06 04:30:00,
2013-03-05 23:35:00,28.9,28.4,29.84,NW,316,5.0,7.0,98,0.00,,,0.11,Wunderground v.1.15,2013-03-06 04:35:00,
2013-03-05 23:40:00,29.0,28.5,29.85,NW,306,4.0,9.0,98,0.00,,,0.11,Wunderground v.1.15,2013-03-06 04:40:00,
2013-03-05 23:45:00,29.1,28.6,29.85,NW,318,5.0,9.0,98,0.00,,,0.11,Wunderground v.1.15,2013-03-06 04:45:00,
2013-03-05 23:50:00,29.2,28.7,29.85,NNW,348,6.0,6.0,98,0.00,,,0.11,Wunderground v.1.15,2013-03-06 04:50:00,
2013-03-05 23:55:00,29.3,28.8,29.85,NW,310,5.0,7.0,98,0.00,,,0.11,Wunderground v.1.15,2013-03-06 04:55:00,